TimePST,TemperatureF,Dew PointF,Humidity,Sea Level PressureIn,VisibilityMPH,Wind Direction,Wind SpeedMPH,Gust SpeedMPH,PrecipitationIn,Events,Conditions,WindDirDegrees,DateUTC
12:21 AM,54.0,53.1,97,30.05,10.0,Calm,Calm,-,N/A,,Overcast,0,2014-02-15 08:21:00
12:54 AM,55.0,52.0,89,30.02,10.0,Calm,Calm,-,N/A,,Overcast,0,2014-02-15 08:54:00
1:54 AM,54.0,53.1,97,29.99,10.0,Calm,Calm,-,N/A,,Overcast,0,2014-02-15 09:54:00
2:54 AM,54.0,53.1,97,29.97,10.0,Calm,Calm,-,N/A,,Overcast,0,2014-02-15 10:54:00
3:24 AM,53.1,53.1,100,29.99,10.0,SW,6.9,-,N/A,,Mostly Cloudy,220,2014-02-15 11:24:00
3:45 AM,53.1,52.0,96,30.00,10.0,SW,6.9,-,N/A,,Partly Cloudy,230,2014-02-15 11:45:00
3:54 AM,53.1,52.0,96,29.97,10.0,SW,6.9,-,N/A,,Partly Cloudy,230,2014-02-15 11:54:00
4:54 AM,53.1,52.0,96,29.98,10.0,North,3.5,-,N/A,,Mostly Cloudy,360,2014-02-15 12:54:00
5:09 AM,52.0,51.1,97,30.01,10.0,North,3.5,-,N/A,,Mostly Cloudy,10,2014-02-15 13:09:00
5:54 AM,51.1,51.1,100,29.98,7.0,Calm,Calm,-,N/A,,Mostly Cloudy,0,2014-02-15 13:54:00
6:03 AM,52.0,51.1,97,30.01,7.0,Calm,Calm,-,N/A,,Mostly Cloudy,0,2014-02-15 14:03:00
6:54 AM,53.1,53.1,100,29.99,10.0,SSW,5.8,-,N/A,,Overcast,210,2014-02-15 14:54:00
7:54 AM,53.1,53.1,100,29.99,10.0,South,3.5,-,N/A,,Overcast,170,2014-02-15 15:54:00
8:54 AM,54.0,53.1,97,30.01,10.0,Calm,Calm,-,N/A,,Overcast,0,2014-02-15 16:54:00
9:54 AM,55.9,54.0,93,29.99,10.0,South,9.2,-,N/A,,Overcast,190,2014-02-15 17:54:00
10:54 AM,55.9,54.0,93,29.99,10.0,South,9.2,-,N/A,,Mostly Cloudy,190,2014-02-15 18:54:00
11:08 AM,57.0,54.0,89,30.02,10.0,SSW,11.5,-,N/A,,Mostly Cloudy,210,2014-02-15 19:08:00
11:54 AM,57.0,53.1,87,29.98,10.0,SSW,9.2,-,N/A,,Mostly Cloudy,210,2014-02-15 19:54:00
12:54 PM,57.9,54.0,87,29.99,10.0,SW,9.2,-,N/A,,Overcast,230,2014-02-15 20:54:00
1:54 PM,60.1,53.1,78,29.98,10.0,SW,12.7,-,N/A,,Overcast,220,2014-02-15 21:54:00
2:54 PM,57.0,52.0,83,29.99,10.0,SSW,15.0,-,N/A,,Overcast,210,2014-02-15 22:54:00
3:54 PM,57.0,53.1,87,29.97,10.0,SSW,16.1,-,N/A,,Overcast,210,2014-02-15 23:54:00
4:54 PM,55.9,53.1,90,29.97,10.0,SSW,17.3,-,N/A,,Overcast,210,2014-02-16 00:54:00
5:54 PM,55.0,53.1,93,29.96,10.0,SSW,17.3,-,N/A,,Overcast,210,2014-02-16 01:54:00
6:54 PM,55.0,54.0,96,29.96,10.0,SSW,16.1,-,0.01,Rain,Light Rain,210,2014-02-16 02:54:00
7:54 PM,55.0,53.1,93,29.96,10.0,SSW,15.0,-,0.00,Rain,Light Rain,210,2014-02-16 03:54:00
8:21 PM,55.0,54.0,96,29.99,10.0,SSW,11.5,-,0.00,,Overcast,200,2014-02-16 04:21:00
8:54 PM,55.0,54.0,96,29.98,10.0,South,12.7,-,0.00,,Overcast,190,2014-02-16 04:54:00
9:24 PM,55.0,54.0,96,30.01,10.0,SSW,9.2,-,N/A,,Overcast,200,2014-02-16 05:24:00
9:54 PM,55.0,54.0,96,29.99,10.0,SSW,10.4,-,N/A,,Overcast,200,2014-02-16 05:54:00
10:32 PM,55.0,54.0,96,30.02,9.0,SSW,16.1,-,N/A,,Overcast,210,2014-02-16 06:32:00
10:54 PM,55.0,55.0,100,29.99,10.0,SSW,17.3,-,N/A,,Overcast,200,2014-02-16 06:54:00
11:22 PM,55.0,55.0,100,30.03,8.0,SSW,16.1,-,N/A,,Overcast,210,2014-02-16 07:22:00
11:30 PM,55.0,55.0,100,30.02,3.0,SSW,18.4,-,0.00,Rain,Light Rain,210,2014-02-16 07:30:00
11:54 PM,55.0,55.0,100,30.00,6.0,SW,13.8,-,0.00,,Overcast,230,2014-02-16 07:54:00